Regional Weather Roundup
Issued by NWS

Home | Current Version | Previous Version | Graphics & Text | Print | Product List | Glossary On
Versions: 1 2 3 4 5 6 7 8 9 10 11 12 13 14 15 16 17 18 19 20 21 22 23 24 25 26 27 28
000
ASUS45 KPSR 230010
RWRAZ

ARIZONA HOURLY REGIONAL WEATHER ROUNDUP
NATIONAL WEATHER SERVICE PHOENIX AZ
500 PM MST WED MAR 22 2017

NOTE: FAIR INDICATES FEW OR NO CLOUDS BELOW 12,000 FEET WITH NO
SIGNIFICANT WEATHER AND/OR OBSTRUCTIONS TO VISIBILITY.

AZZ001>003-036-230100-
NORTHWEST ARIZONA

CITY           SKY/WX    TMP DP  RH WIND       PRES   REMARKS
BULLHEAD CITY  TSTM      66  46  48 S16G41    29.80R
KINGMAN        PTSUNNY   66  22  18 S25G31    29.82F
6HR MIN TEMP:  65; 6HR MAX TEMP:  70;

$$

AZZ004>008-015-016-018-230100-
NORTH CENTRAL ARIZONA

CITY           SKY/WX    TMP DP  RH WIND       PRES   REMARKS
GRAND CANYON   CLOUDY    51  42  71 SW10G23   29.94F THUNDER
6HR MIN TEMP:  50; 6HR MAX TEMP:  60; 6HR PCP: TRACE;

WILLIAMS       CLOUDY    52  39  62 SW14G22   29.97S
PRESCOTT       CLOUDY    59  41  51 S15G24    29.93F
6HR MIN TEMP:  59; 6HR MAX TEMP:  64;

FLAGSTAFF      CLOUDY    49  40  71 SW17G23   29.98F
6HR MIN TEMP:  49; 6HR MAX TEMP:  55; 6HR PCP: TRACE;

PAYSON         PTSUNNY   64  32  29 S10G18    29.98F
PAGE           CLOUDY    64  50  61 NW10      29.80F
6HR MIN TEMP:  64; 6HR MAX TEMP:  74; 6HR PCP: TRACE;

$$

AZZ009>014-017-230100-
NORTHEAST ARIZONA

CITY           SKY/WX    TMP DP  RH WIND       PRES   REMARKS
WINSLOW        PTSUNNY   69  22  16 S20       29.89F
6HR MIN TEMP:  69; 6HR MAX TEMP:  76;

SAINT JOHNS    PTSUNNY   72  19  13 SW16G30   29.94F
6HR MIN TEMP:  70; 6HR MAX TEMP:  74;

WINDOW ROCK    CLOUDY    64  18  17 SW14G24   30.00F
6HR MIN TEMP:  64; 6HR MAX TEMP:  68;

SHOW LOW       PTSUNNY   63  18  17 S21G26    30.00F
$$

AZZ023-230100-
GREATER PHOENIX AREA

CITY           SKY/WX    TMP DP  RH WIND       PRES   REMARKS
PHOENIX        PTSUNNY   79  48  33 NW10      29.80F
6HR MIN TEMP:  76; 6HR MAX TEMP:  82;

BUCKEYE        MOSUNNY   81  45  28 S8        29.81F
LUKE AFB       PTSUNNY   79  49  34 SW10      29.80F
6HR MIN TEMP:  73; 6HR MAX TEMP:  80;

DEER VALLEY    PTSUNNY   77  48  35 W9        29.82F
6HR MIN TEMP:  74; 6HR MAX TEMP:  79;

SCOTTSDALE     MOSUNNY   77  47  34 SW8       29.83F
6HR MIN TEMP:  75; 6HR MAX TEMP:  80;

MESA-GATEWAY   PTSUNNY   81  45  28 W3        29.82F
CHANDLER       PTSUNNY   81  46  30 W9        29.81F
$$

AZZ027-028-230100-
SOUTHWEST MARICOPA COUNTY AND PINAL COUNTY

CITY           SKY/WX    TMP DP  RH WIND       PRES   REMARKS
CASA GRANDE    NOT AVBL
GILA BEND      MOSUNNY   80  48  32 W8        29.79F
6HR MIN TEMP:  74; 6HR MAX TEMP:  82;

$$

AZZ503-504-507>509-230100-
SOUTHEAST ARIZONA

CITY           SKY/WX    TMP DP  RH WIND       PRES   REMARKS
TUCSON         CLOUDY    84  23  10 SW13G25   29.89F
6HR MIN TEMP:  78; 6HR MAX TEMP:  85;

DAVIS-MONTHAN  MOSUNNY   82  23  11 W13G21    29.88F
6HR MIN TEMP:  78; 6HR MAX TEMP:  83;

RYAN FIELD     SUNNY     82  25  12 S15G22    29.88F
NOGALES        MOSUNNY   79  24  13 SW16G24   29.96F
6HR MIN TEMP:  79; 6HR MAX TEMP:  85;

SIERRA VISTA   MOSUNNY   76  19  12 SW20G30   29.99F
6HR MIN TEMP:  76; 6HR MAX TEMP:  82;

DOUGLAS        MOSUNNY   83  13   7 SW29G38   29.95S
6HR MIN TEMP:  78; 6HR MAX TEMP:  87; 6HR PCP: TRACE;

SAFFORD        MOSUNNY   83  27  13 NW16G22   29.83S
6HR MIN TEMP:  79; 6HR MAX TEMP:  90;

$$

AZZ020-021-025-026-031-230100-
SOUTHWEST ARIZONA

CITY           SKY/WX    TMP DP  RH WIND       PRES   REMARKS
YUMA           TSTM      66  55  68 NW15      29.86R
6HR MIN TEMP:  64; 6HR MAX TEMP:  81; 6HR PCP:  0.15;

$$

CAZ031-033-041-043-047-048-061-230100-
SOUTHERN CALIFORNIA

CITY           SKY/WX    TMP DP  RH WIND       PRES   REMARKS
DOWNTOWN L.A.  SUNNY     64  52  64 W9G29     29.95F
6HR MIN TEMP:  64; 6HR MAX TEMP:  69;

L.A. AIRPORT   MOSUNNY   63  55  75 W26       29.96F
6HR MIN TEMP:  61; 6HR MAX TEMP:  65;

SAN DIEGO      PTSUNNY   66  51  58 W14       30.02S
6HR MIN TEMP:  62; 6HR MAX TEMP:  67;

BURBANK        PTSUNNY   67  44  43 W15       29.93F
6HR MIN TEMP:  60; 6HR MAX TEMP:  67;

ONTARIO        PTSUNNY   65  45  48 SW16      29.93S
6HR MIN TEMP:  61; 6HR MAX TEMP:  69;

RIVERSIDE      MOSUNNY   66  48  52 W16       29.92F
6HR MIN TEMP:  62; 6HR MAX TEMP:  68;

PALM SPRINGS   MOSUNNY   74  38  27 NW9       29.83F
6HR MIN TEMP:  74; 6HR MAX TEMP:  80;

EL CENTRO NAS  CLOUDY    66  46  48 SW18      29.87F
6HR MIN TEMP:  66; 6HR MAX TEMP:  78; 6HR PCP:  0.03;

IMPERIAL       CLOUDY    67  47  48 W17       29.85F
6HR MIN TEMP:  66; 6HR MAX TEMP:  78; 6HR PCP: TRACE;

BLYTHE         CLOUDY    72  45  37 S9        29.83F
6HR MIN TEMP:  71; 6HR MAX TEMP:  82; 6HR PCP: TRACE;

NEEDLES        CLOUDY    71  45  39 SW15G25   29.79S
6HR MIN TEMP:  71; 6HR MAX TEMP:  82; 6HR PCP: TRACE;

$$

NVZ020-UTZ003-230100-
SOUTHERN NEVADA-UTAH

CITY           SKY/WX    TMP DP  RH WIND       PRES   REMARKS
LAS VEGAS      CLOUDY    70  15  12 SW17G24   29.75F
6HR MIN TEMP:  67; 6HR MAX TEMP:  72;

SALT LAKE CITY CLOUDY    56  43  61 NE14      29.77F
6HR MIN TEMP:  55; 6HR MAX TEMP:  62; 6HR PCP:  0.08;

$$

NMZ009-TXZ055-230100-
NEW MEXICO-WEST TEXAS

CITY           SKY/WX    TMP DP  RH WIND       PRES   REMARKS
ALBUQUERQUE    PTSUNNY   79   5   6 S32G39    29.90F
6HR MIN TEMP:  70; 6HR MAX TEMP:  82;

EL PASO        MOSUNNY   89   3   4 W15       29.89F
6HR MIN TEMP:  81; 6HR MAX TEMP:  93;

$$


........................KEY........................
SKY/WX - SKY CONDITION/WEATHER
TMP    - TEMPERATURE IN FAHRENHEIT
DP     - DEW POINT IN FAHRENHEIT
RH     - RELATIVE HUMIDITY IN PERCENT
WIND   - DIRECTION AND SPEED IN MILES PER HOUR (MPH)
VRB    - VARIABLE WIND DIRECTION
PRES   - MEAN SEA LEVEL PRESSURE IN INCHES OF MERCURY
         F - FALLING PRESSURE   R - RISING PRESSURE
         S - STEADY PRESSURE
VSB    - VISIBILITY IN MILES
HX     - HEAT INDEX IN FAHRENHEIT
WCI    - WIND CHILL INDEX IN FAHRENHEIT
TC     - TEMPERATURE IN CELSIUS WHICH IS ALSO KNOWN AS
         TEMPERATURE IN CENTIGRADE
AFB    - AIR FORCE BASE
         LUKE AFB IS LUKE AIR FORCE BASE
         DAVIS-MONTHAN IS DAVIS-MONTHAN AIR FORCE BASE
NAS    - NAVAL AIR STATION
         EL CENTRO NAS IS EL CENTRO NAVAL AIR STATION
N/A    - NOT AVAILABLE





USA.gov is the U.S. government's official web portal to all federal, state and local government web resources and services.